TimeEDT,TemperatureF,Dew PointF,Humidity,Sea Level PressureIn,VisibilityMPH,Wind Direction,Wind SpeedMPH,Gust SpeedMPH,PrecipitationIn,Events,Conditions,WindDirDegrees,DateUTC
12:15 AM,66.2,64.4,94,29.83,5.0,South,4.6,-,N/A,,Overcast,180,2013-09-02 04:15:00
12:35 AM,66.2,64.4,94,29.82,1.0,South,6.9,-,N/A,,Overcast,180,2013-09-02 04:35:00
12:55 AM,66.2,64.4,94,29.82,0.8,South,6.9,-,N/A,,Overcast,190,2013-09-02 04:55:00
1:15 AM,66.2,64.4,94,29.81,0.5,South,4.6,-,N/A,,Overcast,180,2013-09-02 05:15:00
1:35 AM,66.2,66.2,100,29.81,0.5,South,5.8,-,N/A,,Overcast,190,2013-09-02 05:35:00
1:55 AM,66.2,66.2,100,29.81,0.2,South,4.6,-,N/A,,Overcast,190,2013-09-02 05:55:00
2:15 AM,66.2,66.2,100,29.81,0.2,South,4.6,-,N/A,,Overcast,190,2013-09-02 06:15:00
2:35 AM,68.0,66.2,94,29.81,2.5,SW,5.8,-,N/A,,Overcast,220,2013-09-02 06:35:00
2:55 AM,68.0,66.2,94,29.81,3.0,SW,5.8,-,N/A,,Overcast,220,2013-09-02 06:55:00
3:15 AM,68.0,66.2,94,29.81,3.0,SSW,4.6,-,N/A,,Mostly Cloudy,210,2013-09-02 07:15:00
3:35 AM,68.0,66.2,94,29.80,4.0,SW,5.8,-,N/A,,Mostly Cloudy,220,2013-09-02 07:35:00
3:55 AM,68.0,66.2,94,29.81,5.0,SW,3.5,-,N/A,,Mostly Cloudy,230,2013-09-02 07:55:00
4:15 AM,68.0,66.2,94,29.80,4.0,WSW,4.6,-,N/A,,Overcast,240,2013-09-02 08:15:00
4:35 AM,68.0,66.2,94,29.80,3.0,SW,6.9,-,N/A,,Overcast,230,2013-09-02 08:35:00
4:55 AM,68.0,66.2,94,29.79,4.0,SW,5.8,-,N/A,,Mostly Cloudy,220,2013-09-02 08:55:00
5:15 AM,68.0,66.2,94,29.80,3.0,West,6.9,-,N/A,,Mostly Cloudy,260,2013-09-02 09:15:00
5:35 AM,68.0,66.2,94,29.80,3.0,WSW,4.6,-,N/A,,Overcast,240,2013-09-02 09:35:00
5:55 AM,68.0,66.2,94,29.80,3.0,SW,5.8,-,N/A,,Overcast,220,2013-09-02 09:55:00
6:15 AM,68.0,66.2,94,29.80,3.0,SW,6.9,-,N/A,,Overcast,230,2013-09-02 10:15:00
6:35 AM,68.0,66.2,94,29.81,4.0,SSW,4.6,-,N/A,,Overcast,210,2013-09-02 10:35:00
6:55 AM,68.0,66.2,94,29.81,3.0,South,4.6,-,N/A,,Overcast,190,2013-09-02 10:55:00
7:15 AM,68.0,66.2,94,29.81,2.0,SSW,5.8,-,N/A,,Overcast,200,2013-09-02 11:15:00
7:35 AM,68.0,66.2,94,29.81,2.5,SW,5.8,-,N/A,,Overcast,230,2013-09-02 11:35:00
7:55 AM,68.0,66.2,94,29.82,2.5,SW,6.9,-,N/A,,Overcast,220,2013-09-02 11:55:00
8:15 AM,68.0,66.2,94,29.82,2.0,SW,8.1,-,N/A,,Overcast,230,2013-09-02 12:15:00
8:35 AM,69.8,66.2,88,29.82,2.0,SW,6.9,-,N/A,,Overcast,230,2013-09-02 12:35:00
8:55 AM,69.8,66.2,88,29.82,2.0,SW,6.9,-,N/A,,Overcast,230,2013-09-02 12:55:00
9:15 AM,69.8,66.2,88,29.82,3.0,SW,9.2,-,N/A,,Overcast,230,2013-09-02 13:15:00
9:35 AM,69.8,68.0,94,29.81,3.0,SW,8.1,-,N/A,,Overcast,230,2013-09-02 13:35:00
9:55 AM,69.8,68.0,94,29.81,3.0,SW,8.1,-,N/A,,Overcast,220,2013-09-02 13:55:00
10:15 AM,69.8,68.0,94,29.82,3.0,WSW,10.4,-,N/A,,Overcast,240,2013-09-02 14:15:00
10:35 AM,71.6,68.0,88,29.80,5.0,SW,10.4,16.1,N/A,,Mostly Cloudy,220,2013-09-02 14:35:00
10:55 AM,71.6,66.2,83,29.80,5.0,SW,9.2,-,N/A,,Mostly Cloudy,230,2013-09-02 14:55:00
11:15 AM,71.6,68.0,88,29.80,5.0,SW,9.2,-,N/A,,Mostly Cloudy,220,2013-09-02 15:15:00
11:35 AM,73.4,66.2,78,29.80,8.0,SW,13.8,-,N/A,,Mostly Cloudy,230,2013-09-02 15:35:00
11:55 AM,73.4,66.2,78,29.81,10.0,SW,12.7,-,N/A,,Mostly Cloudy,230,2013-09-02 15:55:00
12:15 PM,75.2,68.0,78,29.80,10.0,SW,11.5,-,N/A,,Mostly Cloudy,230,2013-09-02 16:15:00
12:35 PM,73.4,66.2,78,29.81,9.0,SW,16.1,-,N/A,Thunderstorm,Scattered Clouds,230,2013-09-02 16:35:00
12:55 PM,71.6,66.2,83,29.80,9.0,SW,8.1,-,0.04,Thunderstorm,Thunderstorm,230,2013-09-02 16:55:00
1:15 PM,64.4,60.8,88,29.81,10.0,West,15.0,-,0.14,Thunderstorm,Thunderstorm,260,2013-09-02 17:15:00
1:35 PM,64.4,59.0,83,29.82,10.0,SW,8.1,-,0.15,Thunderstorm,Thunderstorm,220,2013-09-02 17:35:00
1:55 PM,62.6,60.8,94,29.81,10.0,SSW,3.5,-,0.16,Thunderstorm,Overcast,210,2013-09-02 17:55:00
2:15 PM,64.4,62.6,94,29.82,10.0,SW,6.9,-,N/A,,Mostly Cloudy,220,2013-09-02 18:15:00
2:35 PM,68.0,62.6,83,29.82,10.0,SW,8.1,-,N/A,,Mostly Cloudy,230,2013-09-02 18:35:00
2:55 PM,69.8,64.4,83,29.81,10.0,WSW,8.1,-,N/A,,Mostly Cloudy,240,2013-09-02 18:55:00
3:15 PM,71.6,66.2,83,29.80,10.0,West,9.2,-,N/A,,Overcast,280,2013-09-02 19:15:00
3:35 PM,71.6,66.2,83,29.80,10.0,WNW,10.4,-,N/A,,Mostly Cloudy,290,2013-09-02 19:35:00
3:55 PM,71.6,66.2,83,29.80,10.0,WNW,9.2,-,N/A,,Overcast,290,2013-09-02 19:55:00
4:15 PM,71.6,64.4,78,29.80,10.0,WNW,10.4,-,N/A,,Overcast,290,2013-09-02 20:15:00
4:35 PM,69.8,66.2,88,29.80,9.0,NW,10.4,-,N/A,,Overcast,310,2013-09-02 20:35:00
4:55 PM,69.8,64.4,83,29.80,10.0,WNW,11.5,-,N/A,,Mostly Cloudy,290,2013-09-02 20:55:00
5:15 PM,69.8,64.4,83,29.80,10.0,WNW,10.4,-,N/A,,Overcast,290,2013-09-02 21:15:00
5:35 PM,68.0,62.6,83,29.80,10.0,West,9.2,-,N/A,,Overcast,280,2013-09-02 21:35:00
5:55 PM,69.8,62.6,78,29.80,10.0,WNW,8.1,-,N/A,,Overcast,300,2013-09-02 21:55:00
6:15 PM,69.8,62.6,78,29.81,10.0,WNW,9.2,-,N/A,,Mostly Cloudy,300,2013-09-02 22:15:00
6:35 PM,69.8,62.6,78,29.82,10.0,WNW,11.5,-,N/A,,Overcast,300,2013-09-02 22:35:00
6:55 PM,68.0,62.6,83,29.81,10.0,WNW,12.7,-,N/A,,Overcast,300,2013-09-02 22:55:00
7:15 PM,66.2,62.6,88,29.82,10.0,WNW,8.1,-,N/A,,Scattered Clouds,290,2013-09-02 23:15:00
7:35 PM,66.2,60.8,83,29.82,10.0,West,10.4,-,N/A,,Scattered Clouds,280,2013-09-02 23:35:00
7:55 PM,64.4,60.8,88,29.83,10.0,West,9.2,-,N/A,,Scattered Clouds,270,2013-09-02 23:55:00
8:15 PM,64.4,60.8,88,29.83,10.0,West,6.9,-,N/A,,Scattered Clouds,270,2013-09-03 00:15:00
8:35 PM,64.4,60.8,88,29.84,10.0,WNW,5.8,-,N/A,,Overcast,290,2013-09-03 00:35:00
8:55 PM,64.4,60.8,88,29.84,10.0,NNW,10.4,16.1,N/A,,Overcast,330,2013-09-03 00:55:00
9:15 PM,64.4,59.0,83,29.84,10.0,NNW,8.1,-,N/A,,Mostly Cloudy,330,2013-09-03 01:15:00
9:35 PM,62.6,57.2,82,29.85,10.0,NNW,10.4,-,N/A,,Overcast,330,2013-09-03 01:35:00
9:55 PM,62.6,57.2,82,29.85,10.0,NNW,5.8,-,N/A,,Overcast,330,2013-09-03 01:55:00
10:15 PM,62.6,55.4,77,29.85,10.0,NNW,5.8,-,N/A,,Mostly Cloudy,330,2013-09-03 02:15:00
10:35 PM,62.6,57.2,82,29.86,10.0,NW,3.5,-,N/A,,Overcast,320,2013-09-03 02:35:00
10:55 PM,62.6,57.2,82,29.86,10.0,NW,4.6,-,N/A,,Overcast,320,2013-09-03 02:55:00
11:15 PM,62.6,55.4,77,29.87,10.0,WNW,5.8,-,N/A,,Overcast,290,2013-09-03 03:15:00
11:35 PM,62.6,55.4,77,29.87,10.0,NW,8.1,-,N/A,,Overcast,310,2013-09-03 03:35:00
11:55 PM,60.8,55.4,82,29.87,10.0,NW,8.1,-,N/A,,Overcast,320,2013-09-03 03:55:00